Flag Weather past 2 weeks in Concord, California, U.S.A.

Now
53 °F

Clear.


Feels Like: 53 °F
Forecast: 45 / 68 °F
Wind: No wind

Location: Buchanan Field

Current Time: Nov 26, 2014 at 8:33:50 PM

Latest Report: Nov 26, 2014 at 7:53 PM


Visibility: 5 mi

Pressure: 30.18 "Hg

Humidity: 80%

Dew point: 47 °F

Location of ConcordLocation

Historic Weather in Concord — Graph

°F

Concord temperature yesterday

Maximum temperature yesterday: 65 °F (at 2:53 PM)
Minimum temperature yesterday: 41 °F (at 4:53 AM)
Average temperature yesterday: 52 °F

Past Weeks' High & Low Weather Summary

 TemperatureHumidityPressure
High69 °F (Nov 24, 2:53 PM)100% (Nov 13, 7:53 AM)30.44 "Hg (Nov 13, 7:53 AM)
Low40 °F (Nov 24, 5:53 AM)19% (Nov 16, 11:53 AM)29.90 "Hg (Nov 11, 7:53 PM)
Average55 °F73%30.12 "Hg
* Reported Nov 11 6:53 PM — Nov 26 6:53 PM, Concord, Weather by CustomWeather, © 2014

Note: Actual official high and low records may vary slightly from our data, if they occured in-between our weather recording intervals... More about our weather records

Advertising

Concord weather history for previous 24 hours

 ConditionsComfort  
Time TempWeatherWind HumidityBarometerVisibility
6:53 PM
Nov 26
56 °FClear.No wind75%30.18 "Hg6 mi
5:53 PM58 °FClear.No wind70%30.17 "Hg7 mi
4:53 PM62 °FClear.5 mph60%30.18 "Hg6 mi
3:53 PM66 °FSunny.7 mph50%30.17 "Hg5 mi
2:53 PM68 °FSunny.7 mph47%30.18 "Hg7 mi
1:53 PM67 °FSunny.6 mph49%30.19 "Hg8 mi
12:53 PM66 °FSunny.9 mph50%30.21 "Hg7 mi
11:53 AM64 °FSunny.10 mph54%30.24 "Hg8 mi
10:53 AM63 °FSunny.5 mph54%30.27 "Hg9 mi
9:53 AM58 °FSunny.5 mph70%30.29 "Hg6 mi
8:53 AM51 °FSunny.No wind83%30.29 "Hg5 mi
7:53 AM44 °FFog.No wind89%30.30 "Hg4 mi
6:53 AM43 °FClear.No wind89%30.29 "Hg7 mi
5:53 AM42 °FFog.No wind89%30.28 "Hg5 mi
4:53 AM43 °FFog.No wind86%30.29 "Hg6 mi
3:53 AM43 °FFog.No wind89%30.29 "Hg5 mi
2:53 AM44 °FFog.No wind89%30.29 "Hg5 mi
1:53 AM45 °FFog.No wind90%30.28 "Hg5 mi
12:53 AM45 °FFog.No wind90%30.29 "Hg5 mi
11:53 PM
Nov 25
47 °FClear.No wind90%30.31 "Hg7 mi
10:53 PM48 °FFog.No wind86%30.32 "Hg6 mi
9:53 PM50 °FClear.No wind86%30.33 "Hg7 mi
8:53 PM49 °FClear.No wind86%30.33 "Hg8 mi
Weather by CustomWeather, © 2014

See weather overviewHow to use our weather pages